Data No,UTC Date,UTC Time,Latitude,Longitude,Course(deg),Temp(degC),Sal(psu)
579,2022/9/26,9:38,42-36.88N,141-37.06E,210,19.765,32.5037
580,2022/9/26,9:39,42-36.63N,141-36.87E,208,19.814,32.5481
581,2022/9/26,9:40,42-36.37N,141-36.80E,178,19.642,32.6894
582,2022/9/26,9:41,42-36.11N,141-36.93E,156,19.831,32.7507
583,2022/9/26,9:42,42-35.84N,141-37.08E,157,19.992,32.4396
584,2022/9/26,9:43,42-35.58N,141-37.24E,155,19.884,32.4368
585,2022/9/26,9:44,42-35.31N,141-37.43E,147,19.818,32.6226
586,2022/9/26,9:45,42-35.07N,141-37.70E,137,19.739,32.745
587,2022/9/26,9:46,42-34.85N,141-37.97E,137,19.654,32.7373
588,2022/9/26,9:47,42-34.62N,141-38.27E,137,19.562,32.8736
589,2022/9/26,9:48,42-34.39N,141-38.56E,137,19.441,32.8973
590,2022/9/26,9:49,42-34.15N,141-38.84E,137,19.274,32.9655
591,2022/9/26,9:50,42-33.91N,141-39.14E,137,19.1,32.9891
592,2022/9/26,9:51,42-33.67N,141-39.43E,137,19.005,33.0442
593,2022/9/26,9:52,42-33.43N,141-39.73E,138,18.929,33.077
594,2022/9/26,9:53,42-33.18N,141-40.04E,136,18.881,33.1078
595,2022/9/26,9:54,42-32.96N,141-40.34E,133,18.924,33.1485
596,2022/9/26,9:55,42-32.73N,141-40.67E,133,18.986,33.158
597,2022/9/26,9:56,42-32.49N,141-41.01E,133,19.033,33.1579
598,2022/9/26,9:57,42-32.26N,141-41.35E,132,19.104,33.1526
599,2022/9/26,9:58,42-32.04N,141-41.66E,133,19.159,33.1476
600,2022/9/26,9:59,42-31.80N,141-42.00E,133,19.131,33.137
601,2022/9/26,10:00,42-31.56N,141-42.34E,133,19.078,33.0949
602,2022/9/26,10:01,42-31.33N,141-42.67E,133,19.131,33.0267
603,2022/9/26,10:02,42-31.09N,141-43.02E,133,19.394,32.9875
604,2022/9/26,10:03,42-30.85N,141-43.35E,133,19.52,32.966
605,2022/9/26,10:04,42-30.61N,141-43.70E,133,19.493,33.0109
606,2022/9/26,10:05,42-30.37N,141-44.05E,133,19.524,32.9928
607,2022/9/26,10:06,42-30.12N,141-44.39E,133,19.447,32.9552
608,2022/9/26,10:07,42-29.89N,141-44.73E,133,19.243,32.9501
609,2022/9/26,10:08,42-29.65N,141-45.07E,133,19.138,32.9654
610,2022/9/26,10:09,42-29.41N,141-45.42E,133,18.936,32.9831
611,2022/9/26,10:10,42-29.14N,141-45.79E,133,19.061,33.0011
612,2022/9/26,10:11,42-28.92N,141-46.12E,133,19.099,33.0027
613,2022/9/26,10:12,42-28.67N,141-46.47E,133,19.121,33.0164
614,2022/9/26,10:13,42-28.42N,141-46.82E,133,19.162,33.0288
615,2022/9/26,10:14,42-28.18N,141-47.17E,133,19.101,33.0518
616,2022/9/26,10:15,42-27.92N,141-47.53E,133,18.951,33.0637
617,2022/9/26,10:16,42-27.68N,141-47.87E,134,18.948,33.1062
618,2022/9/26,10:17,42-27.42N,141-48.22E,133,19.14,33.1281
619,2022/9/26,10:18,42-27.13N,141-48.63E,133,19.129,33.1128
620,2022/9/26,10:19,42-26.89N,141-48.98E,133,19.087,33.0866
621,2022/9/26,10:20,42-26.63N,141-49.33E,133,19.142,33.0532
622,2022/9/26,10:21,42-26.37N,141-49.69E,134,19.077,33.0332
623,2022/9/26,10:22,42-26.14N,141-50.02E,134,18.892,33.0066
624,2022/9/26,10:23,42-25.91N,141-50.34E,134,18.896,33.013
625,2022/9/26,10:24,42-25.61N,141-50.75E,134,19.01,32.9951
626,2022/9/26,10:25,42-25.38N,141-51.08E,134,18.97,32.9387
627,2022/9/26,10:26,42-25.13N,141-51.42E,134,18.829,32.916
628,2022/9/26,10:27,42-24.87N,141-51.77E,134,18.72,32.9112
629,2022/9/26,10:28,42-24.61N,141-52.14E,134,18.844,32.9393
630,2022/9/26,10:29,42-24.36N,141-52.49E,134,19.018,33.0119
631,2022/9/26,10:30,42-24.09N,141-52.85E,134,19.198,33.0853
632,2022/9/26,10:31,42-23.83N,141-53.21E,134,19.303,33.1863
633,2022/9/26,10:32,42-23.57N,141-53.58E,134,19.284,33.2216
634,2022/9/26,10:33,42-23.29N,141-53.96E,133,19.395,33.2659
635,2022/9/26,10:34,42-23.06N,141-54.42E,122,19.233,33.3246
636,2022/9/26,10:35,42-22.87N,141-54.86E,119,19.339,33.3766
637,2022/9/26,10:36,42-22.69N,141-55.31E,118,19.155,33.4089
638,2022/9/26,10:37,42-22.53N,141-55.70E,118,19.199,33.4093
639,2022/9/26,10:38,42-22.32N,141-56.21E,119,19.331,33.3904
640,2022/9/26,10:39,42-22.13N,141-56.67E,119,19.459,33.3636
641,2022/9/26,10:40,42-21.94N,141-57.13E,120,19.711,33.3389
642,2022/9/26,10:41,42-21.74N,141-57.57E,120,19.953,33.3254
643,2022/9/26,10:42,42-21.54N,141-58.03E,120,20.058,33.3041
644,2022/9/26,10:43,42-21.34N,141-58.48E,120,20.052,33.2575
645,2022/9/26,10:44,42-21.15N,141-58.92E,120,20.021,33.197
646,2022/9/26,10:45,42-20.95N,141-59.38E,120,20.017,33.1665
647,2022/9/26,10:46,42-20.74N,141-59.84E,121,20.024,33.1761
648,2022/9/26,10:47,42-20.55N,142-00.27E,121,20.046,33.1814
649,2022/9/26,10:48,42-20.35N,142-00.73E,121,20.08,33.1872
650,2022/9/26,10:49,42-20.15N,142-01.17E,121,20.111,33.1856
651,2022/9/26,10:50,42-19.94N,142-01.62E,121,20.242,33.1817
652,2022/9/26,10:51,42-19.75N,142-02.06E,120,20.385,33.1654
653,2022/9/26,10:52,42-19.54N,142-02.54E,120,19.659,33.1837
654,2022/9/26,10:53,42-19.35N,142-02.97E,121,19.577,33.1349
655,2022/9/26,10:54,42-19.16N,142-03.40E,120,19.603,32.9776
656,2022/9/26,10:55,42-18.95N,142-03.87E,121,19.611,32.9507
657,2022/9/26,10:56,42-18.77N,142-04.29E,120,19.611,32.7527
658,2022/9/26,10:57,42-18.57N,142-04.73E,120,19.57,32.8442
659,2022/9/26,10:58,42-18.37N,142-05.18E,120,19.572,32.6756
660,2022/9/26,10:59,42-18.18N,142-05.62E,120,19.561,32.5068
661,2022/9/26,11:00,42-17.98N,142-06.07E,120,19.559,32.6724
662,2022/9/26,11:01,42-17.79N,142-06.51E,120,19.561,32.7695
663,2022/9/26,11:02,42-17.59N,142-06.95E,120,19.555,32.8484
664,2022/9/26,11:03,42-17.39N,142-07.41E,120,19.505,33.0195
665,2022/9/26,11:04,42-17.23N,142-07.78E,120,19.5,33.061
666,2022/9/26,11:05,42-17.03N,142-08.23E,120,19.459,33.0861
667,2022/9/26,11:06,42-16.84N,142-08.66E,120,19.36,33.1537
668,2022/9/26,11:07,42-16.65N,142-09.11E,120,19.264,33.1338
669,2022/9/26,11:08,42-16.45N,142-09.56E,121,19.215,33.0909
670,2022/9/26,11:09,42-16.25N,142-10.00E,120,19.33,33.0632
671,2022/9/26,11:10,42-16.06N,142-10.44E,121,19.337,33.0612
672,2022/9/26,11:11,42-15.84N,142-10.93E,121,19.431,33.0682
673,2022/9/26,11:12,42-15.64N,142-11.37E,120,19.418,33.1042
674,2022/9/26,11:13,42-15.44N,142-11.82E,121,19.436,33.0965
675,2022/9/26,11:14,42-15.24N,142-12.27E,121,19.491,33.1735
676,2022/9/26,11:15,42-15.05N,142-12.69E,120,19.56,33.2059
677,2022/9/26,11:16,42-14.85N,142-13.15E,120,19.571,33.2381
678,2022/9/26,11:17,42-14.66N,142-13.57E,120,19.417,33.2916
679,2022/9/26,11:18,42-14.47N,142-14.02E,120,19.325,33.2431
680,2022/9/26,11:19,42-14.27N,142-14.45E,120,19.238,33.0968
681,2022/9/26,11:20,42-14.08N,142-14.90E,121,19.112,32.8292
682,2022/9/26,11:21,42-13.88N,142-15.34E,120,19.054,32.7536
683,2022/9/26,11:22,42-13.69N,142-15.77E,121,19.018,32.6143
684,2022/9/26,11:23,42-13.49N,142-16.21E,121,18.995,32.5875
685,2022/9/26,11:24,42-13.29N,142-16.64E,121,19.032,32.5982
686,2022/9/26,11:25,42-13.09N,142-17.08E,121,19.044,32.5677
687,2022/9/26,11:26,42-12.90N,142-17.53E,120,19.088,32.5585
688,2022/9/26,11:27,42-12.71N,142-17.97E,119,19.115,32.5591
689,2022/9/26,11:28,42-12.52N,142-18.43E,119,19.101,32.573
690,2022/9/26,11:29,42-12.34N,142-18.86E,119,19.133,32.5653
691,2022/9/26,11:30,42-12.14N,142-19.33E,119,19.146,32.57
692,2022/9/26,11:31,42-11.96N,142-19.76E,119,19.202,32.6026
693,2022/9/26,11:32,42-11.78N,142-20.20E,119,19.218,32.6066
694,2022/9/26,11:33,42-11.59N,142-20.66E,119,19.236,32.6102
695,2022/9/26,11:34,42-11.41N,142-21.09E,119,19.205,32.5949
696,2022/9/26,11:35,42-11.25N,142-21.47E,119,19.17,32.551
697,2022/9/26,11:36,42-11.06N,142-21.93E,119,19.206,32.6157
698,2022/9/26,11:37,42-10.87N,142-22.38E,119,19.221,32.5909
699,2022/9/26,11:38,42-10.68N,142-22.82E,119,19.266,32.5992
700,2022/9/26,11:39,42-10.50N,142-23.26E,119,19.348,32.6408
701,2022/9/26,11:40,42-10.32N,142-23.71E,119,19.363,32.8019
702,2022/9/26,11:41,42-10.13N,142-24.17E,119,19.384,32.8707
703,2022/9/26,11:42,42-09.94N,142-24.62E,119,19.431,32.9272
704,2022/9/26,11:43,42-09.75N,142-25.08E,119,19.498,33.0079
705,2022/9/26,11:44,42-09.58N,142-25.50E,119,19.598,33.0324
706,2022/9/26,11:45,42-09.39N,142-25.94E,119,19.657,33.0499
707,2022/9/26,11:46,42-09.20N,142-26.40E,119,19.76,33.1094
708,2022/9/26,11:47,42-09.02N,142-26.83E,119,19.68,33.1719
709,2022/9/26,11:48,42-08.83N,142-27.28E,119,19.639,33.1827
710,2022/9/26,11:49,42-08.64N,142-27.73E,119,19.783,33.1558
711,2022/9/26,11:50,42-08.46N,142-28.16E,119,19.806,33.1914
712,2022/9/26,11:51,42-08.26N,142-28.63E,119,19.757,33.2334
713,2022/9/26,11:52,42-08.08N,142-29.06E,119,19.811,33.232
714,2022/9/26,11:53,42-07.89N,142-29.51E,119,19.898,33.2337
715,2022/9/26,11:54,42-07.71N,142-29.92E,119,19.86,33.2659
716,2022/9/26,11:55,42-07.53N,142-30.36E,119,19.83,33.3193
717,2022/9/26,11:56,42-07.34N,142-30.81E,119,19.885,33.3391
718,2022/9/26,11:57,42-07.16N,142-31.25E,117,19.986,33.3694
719,2022/9/26,11:58,42-06.99N,142-31.71E,115,19.984,33.4162
720,2022/9/26,11:59,42-06.83N,142-32.18E,115,19.99,33.4458
721,2022/9/26,12:00,42-06.67N,142-32.62E,115,20.026,33.4819
722,2022/9/26,12:01,42-06.50N,142-33.09E,115,20.019,33.501
723,2022/9/26,12:02,42-06.34N,142-33.53E,115,20.013,33.4953
724,2022/9/26,12:03,42-06.17N,142-34.02E,115,20.008,33.4796
725,2022/9/26,12:04,42-06.02N,142-34.45E,115,19.972,33.4592
726,2022/9/26,12:05,42-05.86N,142-34.90E,115,19.985,33.4216
727,2022/9/26,12:06,42-05.70N,142-35.36E,115,19.988,33.4062
728,2022/9/26,12:07,42-05.53N,142-35.82E,116,19.933,33.3936
729,2022/9/26,12:08,42-05.37N,142-36.26E,116,19.909,33.3842
730,2022/9/26,12:09,42-05.20N,142-36.70E,116,19.915,33.3654
731,2022/9/26,12:10,42-05.03N,142-37.16E,116,19.907,33.362
732,2022/9/26,12:11,42-04.86N,142-37.62E,117,19.88,33.3496
733,2022/9/26,12:12,42-04.69N,142-38.05E,117,19.837,33.3294
734,2022/9/26,12:13,42-04.52N,142-38.49E,117,19.816,33.3039
735,2022/9/26,12:14,42-04.34N,142-38.95E,117,19.772,33.2555
736,2022/9/26,12:15,42-04.17N,142-39.38E,117,19.741,33.2142
737,2022/9/26,12:16,42-04.00N,142-39.84E,117,19.736,33.1533
738,2022/9/26,12:17,42-03.82N,142-40.29E,117,19.821,33.1089
739,2022/9/26,12:18,42-03.65N,142-40.73E,117,19.88,33.0953
740,2022/9/26,12:19,42-03.48N,142-41.17E,117,19.825,33.1235
741,2022/9/26,12:20,42-03.31N,142-41.61E,117,19.849,33.1027
742,2022/9/26,12:21,42-03.13N,142-42.06E,117,20.003,33.099
743,2022/9/26,12:22,42-02.96N,142-42.50E,117,20.021,33.1401
744,2022/9/26,12:23,42-02.79N,142-42.95E,117,19.877,33.1861
745,2022/9/26,12:24,42-02.61N,142-43.42E,117,19.784,33.2161
746,2022/9/26,12:25,42-02.44N,142-43.85E,117,19.826,33.1565
747,2022/9/26,12:26,42-02.27N,142-44.31E,116,19.813,33.1397
748,2022/9/26,12:27,42-02.10N,142-44.75E,117,19.848,33.1383
749,2022/9/26,12:28,42-01.93N,142-45.21E,117,19.865,33.1315
750,2022/9/26,12:29,42-01.75N,142-45.67E,117,19.793,33.1364
751,2022/9/26,12:30,42-01.58N,142-46.12E,117,19.734,33.1306
752,2022/9/26,12:31,42-01.41N,142-46.57E,116,19.631,33.119
753,2022/9/26,12:32,42-01.24N,142-47.02E,116,19.443,33.1007
754,2022/9/26,12:33,42-01.07N,142-47.48E,116,19.351,33.0622
755,2022/9/26,12:34,42-00.90N,142-47.92E,116,19.357,33.0282
756,2022/9/26,12:35,42-00.72N,142-48.38E,117,19.336,32.9964
757,2022/9/26,12:36,42-00.55N,142-48.85E,116,19.351,32.9787
758,2022/9/26,12:37,42-00.38N,142-49.29E,116,19.241,32.9701
759,2022/9/26,12:38,42-00.21N,142-49.74E,116,19.044,32.9396
760,2022/9/26,12:39,42-00.03N,142-50.21E,116,18.81,32.8919
761,2022/9/26,12:40,41-59.87N,142-50.65E,117,18.53,32.8298
762,2022/9/26,12:41,41-59.69N,142-51.11E,117,18.453,32.7495
763,2022/9/26,12:42,41-59.52N,142-51.55E,117,18.529,32.6773
764,2022/9/26,12:43,41-59.34N,142-52.00E,117,18.418,32.6647
765,2022/9/26,12:44,41-59.17N,142-52.46E,117,18.497,32.709
766,2022/9/26,12:45,41-58.99N,142-52.91E,117,18.368,32.7652
767,2022/9/26,12:46,41-58.82N,142-53.37E,117,18.264,32.8384
768,2022/9/26,12:47,41-58.65N,142-53.80E,117,18.18,32.8752
769,2022/9/26,12:48,41-58.47N,142-54.26E,117,18.128,32.9065
770,2022/9/26,12:49,41-58.30N,142-54.71E,117,18.055,32.937
771,2022/9/26,12:50,41-58.12N,142-55.16E,117,18.109,32.9427
772,2022/9/26,12:51,41-57.94N,142-55.62E,117,18.226,32.9446
773,2022/9/26,12:52,41-57.78N,142-56.06E,116,18.741,32.9768
774,2022/9/26,12:53,41-57.62N,142-56.51E,115,18.996,33.0951
775,2022/9/26,12:54,41-57.45N,142-56.97E,116,18.633,33.2227
776,2022/9/26,12:55,41-57.29N,142-57.42E,116,18.186,33.2972
777,2022/9/26,12:56,41-57.12N,142-57.88E,116,18.019,33.1898
778,2022/9/26,12:57,41-56.94N,142-58.31E,120,17.933,33.0414
779,2022/9/26,12:58,41-56.74N,142-58.74E,122,17.892,32.9878
780,2022/9/26,12:59,41-56.53N,142-59.18E,124,17.929,32.9812
781,2022/9/26,13:00,41-56.32N,142-59.58E,124,17.971,32.9823
782,2022/9/26,13:01,41-56.09N,143-00.00E,125,17.884,32.9878
783,2022/9/26,13:02,41-55.88N,143-00.40E,125,18.001,32.9928
784,2022/9/26,13:03,41-55.66N,143-00.82E,125,18.072,32.9892
785,2022/9/26,13:04,41-55.44N,143-01.23E,125,18.086,32.9878
786,2022/9/26,13:05,41-55.22N,143-01.63E,125,18.063,32.9861
787,2022/9/26,13:06,41-55.00N,143-02.05E,125,18.029,32.9827
788,2022/9/26,13:07,41-54.77N,143-02.47E,125,17.944,32.9763
789,2022/9/26,13:08,41-54.56N,143-02.87E,124,17.873,32.9732
790,2022/9/26,13:09,41-54.34N,143-03.30E,124,17.854,32.9692
791,2022/9/26,13:10,41-54.13N,143-03.72E,121,17.848,32.9696
792,2022/9/26,13:11,41-53.95N,143-04.17E,115,17.821,32.9639
793,2022/9/26,13:12,41-53.82N,143-04.63E,110,17.839,32.9637
794,2022/9/26,13:13,41-53.69N,143-05.11E,109,17.88,32.962
795,2022/9/26,13:14,41-53.56N,143-05.60E,109,17.915,32.9615
796,2022/9/26,13:15,41-53.43N,143-06.05E,109,17.954,32.9589
797,2022/9/26,13:16,41-53.30N,143-06.53E,109,17.929,32.9557
798,2022/9/26,13:17,41-53.17N,143-07.01E,108,17.863,32.9541
799,2022/9/26,13:18,41-53.06N,143-07.48E,109,17.862,32.9623
800,2022/9/26,13:19,41-52.93N,143-07.97E,109,17.766,32.9647
801,2022/9/26,13:20,41-52.80N,143-08.46E,108,17.626,32.9507
802,2022/9/26,13:21,41-52.68N,143-08.95E,108,17.384,32.9517
803,2022/9/26,13:22,41-52.57N,143-09.43E,108,17.351,32.9538
804,2022/9/26,13:23,41-52.45N,143-09.92E,105,17.346,32.9881
805,2022/9/26,13:24,41-52.37N,143-10.42E,100,17.499,32.9873
806,2022/9/26,13:25,41-52.30N,143-10.93E,100,17.651,32.9768
807,2022/9/26,13:26,41-52.24N,143-11.45E,99,17.769,32.9622
808,2022/9/26,13:27,41-52.17N,143-11.94E,99,17.802,32.9539
809,2022/9/26,13:28,41-52.11N,143-12.44E,99,17.801,32.9584
810,2022/9/26,13:29,41-52.04N,143-12.95E,100,17.764,32.9665
811,2022/9/26,13:30,41-51.97N,143-13.45E,100,17.757,32.9798
812,2022/9/26,13:31,41-51.90N,143-13.95E,100,17.756,32.9868
813,2022/9/26,13:32,41-51.83N,143-14.44E,100,17.803,32.9879
814,2022/9/26,13:33,41-51.79N,143-14.96E,93,17.865,32.9743
815,2022/9/26,13:34,41-51.78N,143-15.55E,91,17.908,32.9623
816,2022/9/26,13:35,41-51.77N,143-16.06E,91,17.918,32.9559
817,2022/9/26,13:36,41-51.76N,143-16.61E,91,17.916,32.9462
818,2022/9/26,13:37,41-51.75N,143-17.14E,91,17.957,32.9329
819,2022/9/26,13:38,41-51.75N,143-17.64E,91,18.056,32.9221
820,2022/9/26,13:39,41-51.74N,143-18.18E,91,18.087,32.9004
821,2022/9/26,13:40,41-51.73N,143-18.69E,91,18.058,32.8846
822,2022/9/26,13:41,41-51.72N,143-19.23E,91,17.959,32.8715
823,2022/9/26,13:42,41-51.70N,143-19.74E,92,17.896,32.8643
824,2022/9/26,13:43,41-51.69N,143-20.27E,92,17.852,32.8453
825,2022/9/26,13:44,41-51.80N,143-20.74E,65,17.789,32.8408
826,2022/9/26,13:45,41-52.06N,143-21.08E,38,17.724,32.8508
827,2022/9/26,13:46,41-52.34N,143-21.30E,31,17.594,32.8814
828,2022/9/26,13:47,41-52.65N,143-21.55E,32,17.433,32.9109
829,2022/9/26,13:48,41-52.97N,143-21.82E,32,17.366,32.9505
830,2022/9/26,13:49,41-53.29N,143-22.09E,32,17.316,32.9673
831,2022/9/26,13:50,41-53.60N,143-22.35E,31,17.383,32.9799
832,2022/9/26,13:51,41-53.94N,143-22.63E,32,17.436,32.9598
833,2022/9/26,13:52,41-54.24N,143-22.88E,31,17.528,32.8906
834,2022/9/26,13:53,41-54.57N,143-23.16E,31,17.458,32.8188
835,2022/9/26,13:54,41-54.89N,143-23.42E,32,17.397,32.7407
836,2022/9/26,13:55,41-55.20N,143-23.69E,32,17.281,32.7277
837,2022/9/26,13:56,41-55.52N,143-23.96E,32,17.284,32.7942
838,2022/9/26,13:57,41-55.83N,143-24.22E,32,17.282,32.8609
839,2022/9/26,13:58,41-56.14N,143-24.49E,31,17.229,32.8912
840,2022/9/26,13:59,41-56.47N,143-24.75E,31,17.276,32.9318
841,2022/9/26,14:00,41-56.80N,143-25.01E,30,17.293,32.9984
842,2022/9/26,14:01,41-57.11N,143-25.26E,30,17.276,33.03
843,2022/9/26,14:02,41-57.43N,143-25.51E,30,17.296,33.1072
844,2022/9/26,14:03,41-57.79N,143-25.80E,30,17.322,33.1329
845,2022/9/26,14:04,41-58.13N,143-26.06E,30,17.386,33.1578
846,2022/9/26,14:05,41-58.44N,143-26.31E,29,17.467,33.1605
847,2022/9/26,14:06,41-58.76N,143-26.55E,28,17.471,33.1651
848,2022/9/26,14:07,41-59.10N,143-26.81E,30,17.397,33.1691
849,2022/9/26,14:08,41-59.41N,143-27.05E,29,17.463,33.1639
850,2022/9/26,14:09,41-59.69N,143-27.27E,30,17.571,33.1595
851,2022/9/26,14:10,42-00.02N,143-27.52E,29,17.573,33.1572
852,2022/9/26,14:11,42-00.34N,143-27.76E,29,17.482,33.1569
853,2022/9/26,14:12,42-00.65N,143-28.01E,30,17.48,33.1644
854,2022/9/26,14:13,42-01.01N,143-28.29E,30,17.409,33.1564
855,2022/9/26,14:14,42-01.35N,143-28.56E,30,17.392,33.1473
856,2022/9/26,14:15,42-01.66N,143-28.81E,30,17.458,33.1438
857,2022/9/26,14:16,42-01.94N,143-29.03E,30,17.419,33.1379
858,2022/9/26,14:17,42-02.26N,143-29.28E,30,17.435,33.1402
859,2022/9/26,14:18,42-02.58N,143-29.54E,30,17.444,33.1422
860,2022/9/26,14:19,42-02.91N,143-29.80E,30,17.476,33.1423
861,2022/9/26,14:20,42-03.22N,143-30.04E,30,17.498,33.147
862,2022/9/26,14:21,42-03.54N,143-30.30E,30,17.503,33.1478
863,2022/9/26,14:22,42-03.89N,143-30.57E,30,17.35,33.1514
864,2022/9/26,14:23,42-04.20N,143-30.83E,30,17.24,33.1545
865,2022/9/26,14:24,42-04.51N,143-31.07E,30,17.211,33.1566
866,2022/9/26,14:25,42-04.84N,143-31.33E,30,17.186,33.1555
867,2022/9/26,14:26,42-05.15N,143-31.58E,30,17.225,33.1567
868,2022/9/26,14:27,42-05.48N,143-31.84E,30,17.278,33.1587
869,2022/9/26,14:28,42-05.80N,143-32.09E,30,17.292,33.1626
870,2022/9/26,14:29,42-06.12N,143-32.36E,31,17.386,33.1669
871,2022/9/26,14:30,42-06.42N,143-32.62E,32,17.45,33.166
872,2022/9/26,14:31,42-06.74N,143-32.89E,32,17.492,33.1651
873,2022/9/26,14:32,42-07.06N,143-33.17E,32,17.535,33.1641
874,2022/9/26,14:33,42-07.36N,143-33.43E,32,17.549,33.1586
875,2022/9/26,14:34,42-07.68N,143-33.70E,32,17.646,33.1556
876,2022/9/26,14:35,42-08.00N,143-33.98E,32,17.589,33.1502
877,2022/9/26,14:36,42-08.32N,143-34.26E,32,17.384,33.1411
878,2022/9/26,14:37,42-08.62N,143-34.51E,32,17.177,33.1414
879,2022/9/26,14:38,42-08.94N,143-34.78E,32,17.04,33.1459
880,2022/9/26,14:39,42-09.25N,143-35.05E,32,16.963,33.148
881,2022/9/26,14:40,42-09.55N,143-35.32E,32,16.996,33.156
882,2022/9/26,14:41,42-09.86N,143-35.58E,32,17.028,33.1577
883,2022/9/26,14:42,42-10.18N,143-35.86E,33,16.991,33.1602
884,2022/9/26,14:43,42-10.49N,143-36.15E,34,17.054,33.1555
885,2022/9/26,14:44,42-10.79N,143-36.43E,34,17.094,33.1529
886,2022/9/26,14:45,42-11.08N,143-36.70E,34,17.352,33.1518
887,2022/9/26,14:46,42-11.38N,143-36.99E,34,17.731,33.1556
888,2022/9/26,14:47,42-11.69N,143-37.27E,34,17.873,33.1556
889,2022/9/26,14:48,42-11.99N,143-37.55E,34,18.03,33.1571
890,2022/9/26,14:49,42-12.29N,143-37.84E,34,18.302,33.157
891,2022/9/26,14:50,42-12.59N,143-38.12E,34,18.372,33.1575
892,2022/9/26,14:51,42-12.89N,143-38.40E,34,18.463,33.1534
893,2022/9/26,14:52,42-13.20N,143-38.68E,34,18.786,33.1484
894,2022/9/26,14:53,42-13.50N,143-38.97E,34,18.983,33.1363
895,2022/9/26,14:54,42-13.80N,143-39.24E,34,19.185,33.1116
896,2022/9/26,14:55,42-14.10N,143-39.51E,34,19.273,33.1005
897,2022/9/26,14:56,42-14.44N,143-39.82E,34,19.274,33.0953
898,2022/9/26,14:57,42-14.75N,143-40.12E,34,19.283,33.096
899,2022/9/26,14:58,42-15.05N,143-40.39E,34,19.267,33.1099
900,2022/9/26,14:59,42-15.31N,143-40.62E,32,19.248,33.1232
901,2022/9/26,15:00,42-15.63N,143-40.87E,28,19.24,33.1265
902,2022/9/26,15:01,42-15.94N,143-41.10E,28,19.211,33.1273
903,2022/9/26,15:02,42-16.27N,143-41.33E,28,19.188,33.1273
904,2022/9/26,15:03,42-16.59N,143-41.57E,28,19.162,33.1282
905,2022/9/26,15:04,42-16.91N,143-41.80E,28,19.161,33.1281
906,2022/9/26,15:05,42-17.23N,143-42.03E,28,19.19,33.129
907,2022/9/26,15:06,42-17.55N,143-42.27E,28,19.146,33.127
908,2022/9/26,15:07,42-17.88N,143-42.50E,28,19.041,33.1315
909,2022/9/26,15:08,42-18.19N,143-42.73E,28,18.945,33.1311
910,2022/9/26,15:09,42-18.53N,143-42.98E,29,18.91,33.137
911,2022/9/26,15:10,42-18.84N,143-43.20E,28,18.838,33.1385
912,2022/9/26,15:11,42-19.17N,143-43.44E,28,18.517,33.1453
913,2022/9/26,15:12,42-19.49N,143-43.68E,28,18.415,33.1428
914,2022/9/26,15:13,42-19.80N,143-43.90E,27,18.413,33.1417
915,2022/9/26,15:14,42-20.13N,143-44.14E,28,18.534,33.1453
916,2022/9/26,15:15,42-20.46N,143-44.37E,28,18.524,33.143
917,2022/9/26,15:16,42-20.81N,143-44.63E,28,18.363,33.1453
918,2022/9/26,15:17,42-21.14N,143-44.86E,27,18.107,33.1293
919,2022/9/26,15:18,42-21.42N,143-45.06E,27,17.996,33.1174
920,2022/9/26,15:19,42-21.74N,143-45.29E,27,17.905,33.1068
921,2022/9/26,15:20,42-22.05N,143-45.51E,27,17.887,33.0983
922,2022/9/26,15:21,42-22.38N,143-45.74E,27,17.911,33.0932
923,2022/9/26,15:22,42-22.70N,143-45.97E,27,17.967,33.0907
924,2022/9/26,15:23,42-23.07N,143-46.23E,27,18.025,33.0937
925,2022/9/26,15:24,42-23.40N,143-46.46E,27,18.022,33.0944
926,2022/9/26,15:25,42-23.72N,143-46.69E,27,17.969,33.0968
927,2022/9/26,15:26,42-24.05N,143-46.92E,27,17.991,33.095
928,2022/9/26,15:27,42-24.38N,143-47.15E,27,18.022,33.0918
929,2022/9/26,15:28,42-24.71N,143-47.37E,26,17.85,33.0956
930,2022/9/26,15:29,42-25.05N,143-47.61E,27,17.847,33.0856
931,2022/9/26,15:30,42-25.37N,143-47.84E,27,17.85,33.076
932,2022/9/26,15:31,42-25.71N,143-48.07E,27,17.862,33.0698
933,2022/9/26,15:32,42-26.06N,143-48.32E,27,17.807,33.0637
934,2022/9/26,15:33,42-26.38N,143-48.54E,27,17.842,33.0536
935,2022/9/26,15:34,42-26.73N,143-48.78E,27,17.784,33.0397
936,2022/9/26,15:35,42-27.01N,143-48.98E,27,17.74,33.0245
937,2022/9/26,15:36,42-27.38N,143-49.24E,27,17.717,33.0178
938,2022/9/26,15:37,42-27.72N,143-49.48E,27,17.676,33.0125
939,2022/9/26,15:38,42-28.04N,143-49.70E,27,17.632,33.0189
940,2022/9/26,15:39,42-28.38N,143-49.94E,27,17.468,33.033
941,2022/9/26,15:40,42-28.71N,143-50.17E,27,17.457,33.0569
942,2022/9/26,15:41,42-29.03N,143-50.40E,27,17.522,33.0784
943,2022/9/26,15:42,42-29.35N,143-50.63E,27,17.57,33.0828
944,2022/9/26,15:43,42-29.67N,143-50.85E,27,17.659,33.0895
945,2022/9/26,15:44,42-29.98N,143-51.07E,28,17.661,33.0892
946,2022/9/26,15:45,42-30.32N,143-51.32E,29,17.684,33.0754
947,2022/9/26,15:46,42-30.64N,143-51.58E,30,17.707,33.0863
948,2022/9/26,15:47,42-30.97N,143-51.85E,30,17.738,33.1083
949,2022/9/26,15:48,42-31.28N,143-52.10E,31,17.774,33.1312
950,2022/9/26,15:49,42-31.60N,143-52.37E,32,17.786,33.1464
951,2022/9/26,15:50,42-31.93N,143-52.65E,32,17.803,33.1551
952,2022/9/26,15:51,42-32.23N,143-52.92E,32,17.817,33.1642
953,2022/9/26,15:52,42-32.56N,143-53.19E,32,17.79,33.172
954,2022/9/26,15:53,42-32.88N,143-53.47E,32,17.757,33.173
955,2022/9/26,15:54,42-33.18N,143-53.72E,31,17.711,33.3584
956,2022/9/26,15:55,42-33.50N,143-53.99E,31,17.73,33.1756
957,2022/9/26,15:56,42-33.81N,143-54.26E,31,17.681,33.1744
958,2022/9/26,15:57,42-34.13N,143-54.53E,32,17.584,33.1697
959,2022/9/26,15:58,42-34.44N,143-54.79E,32,17.503,33.1656
960,2022/9/26,15:59,42-34.76N,143-55.06E,31,17.444,33.1565
961,2022/9/26,16:00,42-35.09N,143-55.34E,32,17.425,33.1528
962,2022/9/26,16:01,42-35.38N,143-55.59E,32,17.393,33.1516
963,2022/9/26,16:02,42-35.71N,143-55.87E,31,17.334,33.1531
964,2022/9/26,16:03,42-36.02N,143-56.12E,31,17.414,33.1542
965,2022/9/26,16:04,42-36.34N,143-56.40E,31,17.413,33.1543
966,2022/9/26,16:05,42-36.65N,143-56.66E,32,17.329,33.1522
967,2022/9/26,16:06,42-36.96N,143-56.92E,32,17.297,33.1473
968,2022/9/26,16:07,42-37.28N,143-57.19E,31,17.352,33.1339
969,2022/9/26,16:08,42-37.60N,143-57.46E,31,17.414,33.1235
970,2022/9/26,16:09,42-37.91N,143-57.71E,31,17.51,33.1171
971,2022/9/26,16:10,42-38.22N,143-57.99E,32,17.559,32.9829
972,2022/9/26,16:11,42-38.53N,143-58.25E,32,17.553,32.8159
973,2022/9/26,16:12,42-38.85N,143-58.52E,32,17.557,32.7932
974,2022/9/26,16:13,42-39.16N,143-58.78E,32,17.515,32.7477